FENGYUN 1C DEB, 31378

Orbit data source: Space-Track

FENGYUN 1C DEB, 31378 is space debris in SSO originally from a launch on Mon, 10 May 1999 UTC launched from the Taiyaun Space Center, China (TSC). Fengyun 1C debris stems from the Chinese weather satellite Fengyun-1C, which was intentionally destroyed by a Chinese anti-satellite missile in 2007. This event dramatically increased the amount of space debris, with thousands of trackable fragments posing hazards to satellites and human spaceflight. The Fengyun 1C debris cloud has become a focal point in discussions about space sustainability and the need for international regulations to prevent the creation of new debris.

Loading next visibility...
Identifier
31378, 1999-025BSJ
Orbit
SSO
Country
Flag of CNCN / PRC
Related business
Manufacturer
Unknown
Mission
Spacecraft
Bus & Motor
Unknown
Mass
Unknown
Launch date (UTC)
1999-05-10 (27 years ago)
Launch vehicle
Unknown
Launch site
Taiyaun Space Center, China (TSC)
Object type
Payload
Rocket body
Debris
Shape & HBR
Unknown shape, 0.1 m
Radar Cross Section
Small (<0.1 m²)

Expand to show TLE details & history
Last TLE update: 1 week ago

TLE from 1 week ago
0 FENGYUN 1C DEB
1 31378U 99025BSJ 26152.71237335  .00000821  00000-0  75179-3 0  9997
2 31378 100.7491  69.8438 0169119 126.9170 234.7606 13.80395124965821
Epoch: 2026-06-01T17:05Z
TLE epoch observation values (Epoch: 2026-06-01T17:05:49.057Z)
Latitude
-0.00005°
Longitude
-76.80635°
Altitude
1,038.3 km
Speed
7.296 km/s
True Right ascension
04h 39m 22s
True Declination
0° 00' 00"
Sunlit
Object was in daylight at epoch
Visualization orbit readout
Latitude
Unknown
Longitude
Unknown
Altitude
Unknown
Speed
Unknown
Apparent Right ascension
Unknown
Apparent Declination
Unknown
Sunlit
N/A
Visualization observer readout
Local Sidereal Time
01:29:28
Azimuth
Unknown
Elevation
Unknown
Doppler factor
Unknown
Orbital elements
Apogee altitude
1,083.901 km
Perigee altitude
835.704 km
Semi-major axis
7,337.94 km
Eccentricity
0.01691
Inclination
100.7491°
RAAN
69.8438°
Arg. of periapsis
126.917°
True anomaly
233.19705°
Mean anomaly
234.7606°
Eccentric anomaly
233.97691°
Mean motion
3.45288 °/min
Orbital period
104.26 mins
BSTAR
0.00075179
Loading maneuver chart data...
Computing Atmospheric mass density...
Loading historical data...
Loading historical data...
Loading historical data...
Loading historical data...
Loading historical data...
Loading historical data...
Loading historical data...

Documentation

Showing up to 5 results
|